User: anonymous
Location: CNYAC Observatory
(43.2150°N, 74.9500°W)
Time: 06:27:36
(UTC-04:00)
Language:

Meteor 1-22 Rocket - Orbit

View from above orbital plane
View from above orbital plane
View from above satellite
View from above satellite

Ground track
Ground track

The orbit data is extracted from the following two-line orbital elements,

1 08294U 75087B   14112.81976527  .00000149  00000-0  75480-4 0  9536
2 08294 081.2236 064.5701 0105561 050.7429 011.7099 14.08495641982777
Epoch (UTC): 22 April 2014 19:40:27
Eccentricity: 0.0105561
inclination: 81.2236°
perigee height: 788 km
apogee height: 941 km
right ascension of ascending node: 64.5701°
argument of perigee: 50.7429°
revolutions per day: 14.08495641
mean anomaly at epoch: 11.7099°
orbit number at epoch: 98277

The dashed part of the orbit path shows where the satellite is in the earth's shadow,  

DLR